Location: *
(40.8337°S, 105.8171°E)
Time: 00:44:29
(UTC+00:00)

Daily predictions for brighter satellites

Satellite Brightness Start Highest point End
(mag) Time Altitude Azimuth Time Altitude Azimuth Time Altitude Azimuth
STARLINK-1050 4.5 11:06:17 10° WNW 11:10:22 50° SSW 11:14:29 10° SE
Cosmos 1758 3.7 11:07:12 10° S 11:11:10 45° E 11:15:06 10° NNE
Cosmos 1844 Rocket 3.3 11:06:23 10° NNE 11:11:23 34° ENE 11:16:25 10° SE
CZ-4 R/B 3.0 11:10:47 10° SE 11:13:14 15° E 11:15:38 10° NE
CZ-4B R/B 3.6 11:08:04 10° S 11:13:37 70° WSW 11:18:58 10° NNW
Cosmos 1271 Rocket 4.1 11:12:15 10° NE 11:15:02 19° E 11:17:51 10° SE
Helios 1A Rocket 3.0 11:11:29 10° SSE 11:15:43 81° ENE 11:19:54 10° N
Cosmos 1536 Rocket 3.6 11:13:30 10° N 11:17:48 62° E 11:22:10 10° SSE
Cosmos 1025 Rocket 3.0 11:14:46 10° N 11:19:01 69° E 11:23:22 10° SSE
Lacrosse 4 Rocket 3.0 11:17:45 10° NE 11:20:11 15° ENE 11:22:37 10° ESE
Cosmos 1674 4.4 11:19:11 10° ENE 11:20:59 13° E 11:22:48 10° ESE
Cosmos 1455 Rocket 4.1 11:18:06 10° SSW 11:22:25 53° W 11:26:39 10° N
YAOGAN 1 4.1 11:19:54 10° SE 11:22:36 16° E 11:25:16 10° NE
Okean-O 3.3 11:20:40 10° SSE 11:24:45 33° E 11:28:47 10° NNE
Cosmos 407 Rocket 3.9 11:19:44 10° S 11:24:54 44° ESE 11:29:57 10° NE
Cosmos 1939 Rocket 4.4 11:23:08 10° SE 11:25:57 17° E 11:28:43 10° NE
Cosmos 2263 Rocket 3.9 11:25:29 10° WNW 11:30:35 35° WSW 11:35:44 10° S
Cosmos 614 Rocket 4.1 11:25:32 10° SSW 11:30:41 58° ESE 11:35:49 10° NNE
Gbstr 26 Del rocket 4.1 11:25:39 10° NW 11:31:42 81° NE 11:39:09 10° SE
SMAP 3.4 11:30:07 10° S 11:34:51 71° WSW 11:39:30 10° NNW
Shenzhou-11 Module 4.1 11:35:52 10° NNE 11:36:04 10° NE 11:36:16 10° NE
Meteor 2-10 4.1 11:34:02 10° S 11:38:59 49° ESE 11:43:56 10° NNE
ATLAS 5 CENTAUR R/B 3.5 11:37:58 10° SW 11:42:36 34° WNW 11:46:38 10° N
FengYun 1-2 T 4.3 11:37:36 10° SSE 11:43:12 56° E 11:48:41 10° N
IRS-1C Rocket 4.1 11:38:42 10° SSE 11:44:05 89° ENE 11:49:24 10° NNW
Envisat 3.2 11:39:34 10° S 11:44:45 79° WSW 11:49:51 10° NNW
STARLINK-43 3.4 11:43:23 10° SW 11:47:08 77° NW 11:50:19 14° NE
Cosmos 1953 2.2 11:45:55 10° S 11:50:00 68° E 11:53:59 10° NNE
CZ-2C R/B 3.0 11:46:36 10° NE 11:51:39 43° ESE 11:56:52 10° S
Cosmos 1726 Rocket 4.4 11:48:37 10° SSE 11:52:24 28° ESE 11:54:27 19° ENE
USA 215 4.0 11:47:40 12° ESE 11:53:02 32° NE 11:58:45 10° N
Cosmos 1371 Rocket 4.0 11:48:01 10° NNW 11:53:13 88° WSW 11:58:29 10° SSE
Cosmos 1726 2.2 11:50:30 10° S 11:54:12 51° E 11:57:52 10° NNE
Cosmos 1833 Rocket 4.5 11:52:18 10° SSE 11:55:06 14° SE 11:56:13 13° ESE
FALCON 9 R/B 3.7 11:51:14 10° NNW 11:55:36 15° N 11:57:50 12° NE
Aureole 3 2.7 11:53:36 10° S 11:56:49 82° W 11:59:49 10° N
